This is the latest recevied weather packets stored in our database for station/object WB5TZJ. If no packets are shown the sender has not sent any weather packets the latest 10 day(s).
| Time | Temp. | Humidity | Pressure | Rain* | Wind** | Luminosity | Snow |
|---|---|---|---|---|---|---|---|
| 1777664446 | 22.78° C | 46% | 1012.1 hPa | 0 mm | - | - | - |
| 1777663846 | 22.78° C | 47% | 1012.1 hPa | 0 mm | - | - | - |
| 1777663549 | 22.78° C | 47% | - | 0 mm | - | - | - |
| 1777663246 | 22.78° C | 44% | 1012.1 hPa | 0 mm | - | - | - |
| 1777662649 | 22.78° C | 45% | 1012.1 hPa | 0 mm | - | - | - |
| 1777662646 | 22.78° C | 45% | 1012.1 hPa | 0 mm | - | - | - |
| 1777662046 | 22.78° C | 48% | 1012.1 hPa | 0 mm | - | - | - |
| 1777661446 | 22.78° C | 46% | 1012.1 hPa | 0 mm | - | - | - |
| 1777660846 | 22.78° C | 46% | 1012.1 hPa | 0 mm | - | - | - |
| 1777660246 | 22.78° C | 49% | 1012.1 hPa | 0 mm | - | - | - |
| 1777659646 | 22.22° C | 48% | 1011.8 hPa | 0 mm | - | - | - |
| 1777659046 | 22.78° C | 48% | 1012.1 hPa | 0 mm | - | - | - |
| 1777658446 | 22.78° C | 48% | 1012.5 hPa | 0 mm | - | - | - |
| 1777657846 | 22.78° C | 47% | 1012.5 hPa | 0 mm | - | - | - |
| 1777657246 | 22.78° C | 45% | 1012.5 hPa | 0 mm | - | - | - |
| 1777656646 | 22.78° C | 48% | 1012.1 hPa | 0 mm | - | - | - |
| 1777656046 | 22.78° C | 45% | 1012.1 hPa | 0 mm | - | - | - |
| 1777655446 | 22.78° C | 46% | 1012.1 hPa | 0 mm | - | - | - |
| 1777654846 | 22.78° C | 44% | 1011.8 hPa | 0 mm | - | - | - |
| 1777654246 | 22.78° C | 48% | 1011.5 hPa | 0 mm | - | - | - |
| 1777653646 | 22.78° C | 48% | 1011.8 hPa | 0 mm | - | - | - |
| 1777653046 | 22.78° C | 44% | 1011.8 hPa | 0 mm | - | - | - |
| 1777652446 | 22.78° C | 48% | 1011.5 hPa | 0 mm | - | - | - |
| 1777651846 | 22.78° C | 48% | 1010.4 hPa | 0 mm | - | - | - |
| 1777651246 | 22.78° C | 44% | 1010.1 hPa | 0 mm | - | - | - |
* Rain latest hour (hover to see other rain measurements)
** Current wind speed in m/s (hover to see current wind gust speed)